Location: Krasnoyarskiy Pitomnik
(51.1333°N, 71.6167°E)
Time: 09:43:15
(UTC+00:00)

Cosmos 332 Rocket - Pass Details

Date: 22 October 2021
Orbit: 682 x 703 km, 74.0° (Epoch: 06 December)

Event Time Altitude Azimuth Distance (km) Brightness Sun altitude
Rises 14:42:45 0° 214° (SSW) 3,077 7.4 -25.1°
Reaches altitude 10° 14:45:06 10° 218° (SW) 2,161 6.6 -25.4°
Maximum altitude 14:49:55 60° 298° (WNW) 800 4.3 -26.2°
Enters shadow 14:53:00 22° 13° (NNE) 1,515 5.5 -26.6°
